El Paso, TX

11:47 PM MDT on August 24, 2016 (GMT -0600)
El Paso International

Weather History for KELP - April, 2012

Change the Weather History Date:

Wednesday, April 18, 2012

  Actual Average Record
Temperature  
Mean Temperature 74 °F 65 °F  
Max Temperature 90 °F 79 °F 94 °F (1989)
Min Temperature 57 °F 51 °F 33 °F (1901)
Degree Days  
Heating Degree Days 0 3  
Month to date heating degree days 37 72  
Since 1 July heating degree days 2293 2445  
Cooling Degree Days 9 3  
Month to date cooling degree days 60 33  
Year to date cooling degree days 97 43  
Growing Degree Days 24 (Base 50)    
Moisture  
Dew Point 15 °F    
Average Humidity 12    
Maximum Humidity 19    
Minimum Humidity 5    
Precipitation  
Precipitation 0.00 in 0.00 in 0.04 in (1971)
Month to date precipitation 0.09 0.13  
Year to date precipitation 0.85 1.25  
Snow  
Snow 0.00 in - - ()
Month to date snowfall 0.0  
Since 1 July snowfall 3.2  
Snow Depth 0.00 in    
Sea Level Pressure  
Sea Level Pressure 29.83 in    
Wind  
Wind Speed 8 mph (SW)    
Max Wind Speed 22 mph    
Max Gust Speed 29 mph    
Visibility 10 miles    
Events      
T = Trace of Precipitation, MM = Missing Value Source: NWS Daily Summary

Daily Weather History Graph

Daily Weather History Graph

Search for Another Location

Airport or City:

Trip Planner

Search our weather history database for the weather conditions in past years. The results will help you decide how hot, cold, wet, or windy it might be!

Date:

Astronomy

Apr. 18, 2012 Rise Set
Actual Time 6:32 AM MDT 7:37 PM MDT
Civil Twilight 6:07 AM MDT 8:02 PM MDT
Nautical Twilight 5:37 AM MDT 8:32 PM MDT
Astronomical Twilight 5:06 AM MDT 9:03 PM MDT
Moon 4:52 AM MDT (4/18) 5:35 PM MDT (4/18)
Length of Visible Light 13h 54m
Length of Day
13h 04m
Waning Crescent, 6% of the Moon is Illuminated
Apr 18
Waning Crescent
Apr 21
New
Apr 29
First Quarter
May 5
Full
May 12
Last Quarter

Hourly Weather History & Observations

Time (MDT) Temp. Dew Point Humidity Pressure Visibility Wind Dir Wind Speed Gust Speed Precip Events Conditions
12:51 AM 64.0 °F 15.1 °F 15% 29.89 in 10.0 mi Calm Calm - N/A   Clear
1:51 AM 60.8 °F 15.8 °F 17% 30.06 in 10.0 mi East 4.6 mph - N/A   Clear
2:51 AM 62.1 °F 15.1 °F 16% 29.87 in 10.0 mi Calm Calm - N/A   Clear
3:51 AM 62.1 °F 15.1 °F 16% 29.87 in 10.0 mi Calm Calm - N/A   Clear
4:51 AM 61.0 °F 16.0 °F 17% 29.87 in 10.0 mi Calm Calm - N/A   Clear
5:51 AM 61.0 °F 17.1 °F 18% 29.87 in 10.0 mi Calm Calm - N/A   Clear
6:51 AM 60.8 °F 17.6 °F 19% 30.07 in 10.0 mi Calm Calm - N/A   Clear
7:51 AM 62.1 °F 19.9 °F 20% 29.93 in 10.0 mi Calm Calm - N/A   Clear
8:51 AM 66.0 °F 21.9 °F 19% 29.93 in 10.0 mi Calm Calm - N/A   Clear
9:51 AM 69.1 °F 23.0 °F 18% 29.94 in 10.0 mi SSE 8.1 mph - N/A   Clear
10:51 AM 75.0 °F 23.0 °F 14% 29.91 in 10.0 mi South 8.1 mph - N/A   Clear
11:51 AM 79.0 °F 21.0 °F 12% 29.89 in 10.0 mi South 5.8 mph - N/A   Clear
12:51 PM 82.9 °F 19.0 °F 9% 29.87 in 10.0 mi South 8.1 mph 16.1 mph N/A   Clear
1:51 PM 87.1 °F 15.1 °F 7% 29.84 in 10.0 mi SSW 11.5 mph - N/A   Clear
2:51 PM 90.0 °F 10.0 °F 5% 29.79 in 10.0 mi SW 13.8 mph 18.4 mph N/A   Clear
3:51 PM 90.0 °F 9.0 °F 5% 29.76 in 10.0 mi West 15.0 mph 19.6 mph N/A   Clear
4:51 PM 88.0 °F 10.0 °F 5% 29.74 in 10.0 mi West 17.3 mph 23.0 mph N/A   Clear
5:51 PM 88.0 °F 10.9 °F 6% 29.73 in 10.0 mi WSW 15.0 mph 21.9 mph N/A   Clear
6:51 PM 86.0 °F 12.0 °F 6% 29.72 in 10.0 mi WSW 11.5 mph - N/A   Clear
7:51 PM 84.0 °F 12.9 °F 7% 29.72 in 10.0 mi WSW 8.1 mph - N/A   Clear
8:51 PM 82.9 °F 12.0 °F 7% 29.73 in 10.0 mi WNW 12.7 mph - N/A   Clear
9:51 PM 82.0 °F 12.0 °F 7% 29.74 in 10.0 mi West 6.9 mph - N/A   Clear
10:51 PM 81.0 °F 12.0 °F 7% 29.73 in 10.0 mi West 18.4 mph - N/A   Clear
11:51 PM 78.1 °F 8.1 °F 7% 29.73 in 10.0 mi WNW 13.8 mph - N/A   Clear